Location: Nelson
(41.2830°S, 173.2830°E)
Time: 18:17:16
(UTC+12:00)

CZ-2D R/B - Pass Details

Date: 14 May 2021
Orbit: 520 x 537 km, 97.4° (Epoch: 19 June)

Event Time Altitude Azimuth Distance (km) Brightness Sun altitude
Exits shadow 19:08:12 30° 28° (NNE) 1,001 4.4 -20.5°
Drops below altitude 10° 19:10:26 10° 7° (N) 1,802 5.9 -20.9°
Sets 19:12:36 0° 1° (N) 2,683 6.9 -21.3°
